Regional Weather Roundup
Issued by NWS

Home | Current Version | Previous Version | Text Only | Print | Product List | Glossary On
Versions: 1 2 3 4 5 6 7 8 9 10 11 12 13 14 15 16 17 18 19 20 21 22 23 24 25 26 27 28 29 30 31 32 33 34 35 36 37 38 39 40 41 42 43 44 45 46 47 48 49 50
000
ASUS46 KPQR 031710
RWROR

OREGON REGIONAL WEATHER ROUNDUP
NATIONAL WEATHER SERVICE PORTLAND OR
1000 AM PDT MON AUG 03 2015

NOTE: "FAIR" INDICATES FEW OR NO CLOUDS BELOW 12,000 FEET WITH
NO SIGNIFICANT WEATHER AND/OR OBSTRUCTIONS TO VISIBILITY.

ORZ001>013-031800-
NORTHWEST OREGON


CITY           SKY/WX    TMP DP  RH WIND       PRES   REMARKS
ASTORIA        CLOUDY    63  57  81 N13       29.99R
NEWPORT        CLOUDY    55  55 100 CALM      30.00R
PORTLAND       LGT RAIN  67  55  65 NW7       29.94R
VANCOUVER WA   CLOUDY    66  54  65 W7        29.94R
SCAPPOOSE      CLOUDY    66  54  65 N3        29.93S
HILLSBORO      PTSUNNY   67  56  67 E3        29.93S
AURORA         PTSUNNY   72  55  55 NE5       29.94R
MCMINNVILLE    MOSUNNY   76  53  44 NE5       29.94S
SALEM          MOSUNNY   74  58  57 NE5       29.93R
CORVALLIS      PTSUNNY   70  55  60 CALM      29.96R
EUGENE         CLOUDY    68  57  68 CALM      29.95R
$$

ORZ021-028-031800-
SOUTHWEST OREGON


CITY           SKY/WX    TMP DP  RH WIND       PRES   REMARKS
NORTH BEND     CLOUDY    61  59  94 CALM      29.98S
BROOKINGS      CLOUDY    60  60 100 W3        29.98S
ROSEBURG       MOSUNNY   70  60  70 SW3       29.93F
SEXTON SUMMIT  HAZE      72  56  57 CALM      30.03S VSB 3/4
MEDFORD        HAZE      73  58  59 W5        29.92F VSB 3/4
$$

ORZ014>016-041-031800-
COLUMBIA GORGE


CITY           SKY/WX    TMP DP  RH WIND       PRES   REMARKS
TROUTDALE      CLOUDY    69  53  56 SW3       29.92S
THE DALLES     CLOUDY    77  51  40 NW14      29.83R
$$

ORZ029>031-041-044-049-050-061>064-502-503-505>511-031800-
EASTERN OREGON


CITY           SKY/WX    TMP DP  RH WIND       PRES   REMARKS
REDMOND        LGT RAIN  75  50  41 W7        30.00R
BEND           LGT RAIN  73  46  38 SW10      30.02S
PRINEVILLE     CLOUDY    73  46  38 CALM      30.01S
KLAMATH FALLS  SUNNY     71  54  54 SE6       30.06S
LAKEVIEW       SUNNY     68  54  60 SE3       30.09F
HERMISTON      CLOUDY    82  49  31 W10       29.79F
PENDLETON      CLOUDY    84  38  19 W17       29.84S
JOHN DAY       CLOUDY    78  40  25 W7        30.01S
MEACHAM        CLOUDY    73  44  35 CALM      29.97S
LA GRANDE      CLOUDY    79  37  22 NW21      29.88S
BAKER CITY     CLOUDY    77  41  27 CALM      29.94R
BURNS          CLOUDY    77  41  27 W17       30.03R
ROME             N/A     83  47  28 SW12      29.99F
ONTARIO        CLOUDY    88  44  21 W9        29.88R
$$



USA.gov is the U.S. government's official web portal to all federal, state and local government web resources and services.